Tracking 19709 objects as of 21-Jun-2019
HD Live streaming from Space Station
objects crossing your sky now

ATLAS AGENA R/B(2)

Track ATLAS AGENA R/B(2) now!


NORAD ID: 15422
Int'l Code: 1977-038C
Perigee: 28,928.8 km
Apogee: 41,522.0 km
Inclination: 10.1 °
Period: 1,407.2 minutes
Semi major axis: 41596 km
RCS: Unknown
Launch date: May 23, 1977
Source: United States (US)
Launch site: AIR FORCE EASTERN TEST RANGE (AFETR)

Note: This is a ROCKET BODY
aabbcc
Your satellite tracking list
Your tracking list is empty




NASA's NSSDC Master Catalog

Two Line Element Set (TLE):
1 15422U 77038C   19170.32030064 -.00000107  00000-0  00000+0 0  9993
2 15422  10.1121 340.0144 1513741 123.0613 252.4977  1.02333825    87
Source of the keplerian elements: McCants